Wind_Speed
23 22 22 21 22 23 24 25 25 25 25 25 24 24 23 23 22 21 20 21 22 24 26 27 28 27 27 26 24 23 23 22 21 20 19 18 17 16 16 15 15 14 14
24 23 23 22 22 22 23 24 24 25 25 23 21 20 20 20 20 18 18 19 19 20 22 24 27 28 28 29 28 27 27 26 25 24 23 22 21 20 19 18 17 16 15
25 24 23 23 23 23 23 24 24 23 22 21 20 19 17 17 17 17 18 19 19 19 20 21 24 26 27 28 30 30 30 29 29 28 27 26 24 23 22 21 20 19 18
24 24 23 22 23 23 23 23 22 21 20 18 16 15 14 15 15 16 17 18 19 20 20 22 23 23 26 26 28 30 30 32 33 32 31 30 28 26 25 24 23 23 21
24 24 23 22 22 22 21 21 20 19 16 14 12 11 11 11 12 14 15 17 18 20 21 22 23 23 25 26 27 29 30 32 35 36 35 34 32 30 28 27 26 26 25
24 24 23 22 20 19 18 18 17 16 14 12 10 10 9 9 10 12 14 15 17 20 21 23 24 25 26 27 28 29 31 32 35 37 38 37 35 33 31 29 28 28 27
23 23 23 21 19 18 16 16 15 15 14 13 12 11 10 9 10 11 13 15 17 19 21 23 25 26 27 28 29 30 31 33 36 38 40 39 37 35 34 32 31 30 30
24 23 22 20 19 18 17 16 17 17 16 15 14 12 12 11 11 12 13 15 17 19 20 23 26 28 29 29 29 30 31 33 35 38 41 42 40 37 35 34 33 32 31
23 23 22 21 20 20 19 19 19 19 19 17 16 14 13 13 14 14 14 15 17 19 20 23 26 29 31 31 30 30 31 32 34 37 40 42 41 38 36 35 34 33 32
23 23 23 23 23 23 22 22 21 21 21 21 19 17 15 14 14 17 17 16 17 19 20 22 24 28 30 31 31 31 31 31 33 35 39 41 40 37 35 34 33 33 32
25 25 26 26 26 26 26 25 24 23 24 24 22 21 19 17 15 16 19 20 18 19 20 22 23 26 29 31 32 31 30 29 31 33 36 39 38 37 34 33 32 32 32
28 28 29 30 30 30 29 28 27 26 26 27 26 24 23 21 19 18 19 21 21 21 20 21 23 24 26 29 31 31 29 27 27 30 32 34 34 32 31 31 31 31 31
33 33 33 33 33 33 34 33 31 30 30 29 29 28 26 25 24 22 20 20 21 22 22 21 21 22 24 26 29 29 28 27 25 24 26 27 28 29 29 29 29 29 29
41 39 38 36 36 37 37 38 36 35 34 33 32 31 29 28 27 25 24 22 21 23 23 22 21 21 23 25 26 27 26 25 23 21 21 22 24 25 25 26 27 27 28
47 47 46 44 42 41 42 42 41 40 38 37 35 34 33 31 30 28 26 24 22 22 24 24 21 21 22 24 26 26 25 24 22 21 19 20 21 22 23 25 26 27 27
53 52 53 52 50 48 47 46 45 44 42 41 39 37 36 34 32 30 29 26 24 23 23 24 22 21 22 24 26 25 25 24 23 22 22 22 22 23 24 25 26 26 26
57 57 57 58 57 56 54 52 50 48 47 45 43 41 38 36 34 32 30 28 26 24 23 23 22 22 22 23 26 27 26 25 25 24 24 24 24 24 25 25 25 25 25
63 62 62 62 62 61 60 58 56 53 51 49 47 44 41 39 36 34 32 30 29 26 24 23 23 23 22 23 25 26 27 26 26 26 25 25 25 25 25 24 24 24 24
65 67 67 66 66 66 64 63 60 58 56 53 51 48 45 42 39 36 34 32 30 28 25 24 24 23 22 22 24 26 27 27 27 26 26 26 25 25 25 24 24 24 24
58 64 68 70 71 70 69 66 64 61 59 56 54 51 48 45 42 39 36 34 32 30 27 25 24 23 21 20 22 24 25 26 26 26 25 25 25 25 24 24 23 23 23
40 47 55 64 70 73 73 71 68 64 61 58 55 52 50 47 45 42 38 36 33 31 28 26 24 22 20 18 19 21 22 23 24 24 24 24 24 24 23 22 22 21 21
32 33 37 44 53 62 70 73 72 68 64 60 56 53 51 49 46 44 40 37 35 32 29 26 25 23 20 18 18 18 19 21 21 22 22 23 22 22 21 21 20 20 20
36 35 33 34 36 41 51 62 69 70 67 63 58 55 52 49 46 44 42 39 36 33 31 27 25 23 20 19 18 18 18 18 19 19 20 20 20 20 20 21 21 20 19
38 37 35 33 32 32 34 41 53 62 65 64 60 57 53 50 48 45 43 40 37 35 32 28 25 22 21 20 19 19 18 18 19 19 19 19 19 20 20 20 20 19 19
40 39 37 35 33 31 30 30 35 46 55 60 61 58 55 52 49 45 43 41 38 35 33 29 25 23 21 20 19 19 18 18 18 19 18 19 19 19 20 21 20 19 18
42 40 39 38 35 33 30 28 27 32 42 50 56 58 56 53 50 47 43 41 38 36 33 29 26 23 22 21 20 20 18 18 18 18 18 18 19 19 19 20 20 19 18
Wind_Direction
287 286 285 280 276 275 276 277 277 278 278 279 280 280 278 279 276 278 272 267 264 258 254 252 249 248 245 244 244 244 243 242 242 243 243 242 241 242 243 244 245 247 249
284 282 283 279 275 272 271 270 271 273 275 276 277 280 283 280 280 277 273 271 267 261 256 253 248 245 244 243 244 243 243 242 242 242 243 243 243 243 244 245 247 247 248
284 283 282 279 276 273 270 268 268 270 270 271 273 276 278 278 278 275 274 272 269 263 262 256 250 246 244 246 244 243 243 243 243 243 243 244 243 244 245 246 247 248 249
286 284 282 279 274 270 268 267 267 266 265 266 267 269 273 275 277 276 274 272 269 267 263 257 253 248 245 245 243 242 242 243 244 243 243 244 245 245 246 247 248 249 250
288 285 282 279 274 269 266 263 262 260 258 256 258 264 271 276 282 284 281 276 272 268 264 260 256 252 248 245 243 242 242 243 243 242 242 243 245 245 246 247 249 249 250
288 286 284 280 273 266 260 256 251 248 245 243 247 255 265 277 287 291 290 285 279 272 267 262 257 254 250 246 243 242 242 242 242 240 239 240 242 244 245 246 248 249 250
283 282 281 276 267 257 250 246 244 241 239 237 241 248 260 274 288 295 298 296 288 279 271 264 259 255 252 248 244 242 240 240 240 239 238 237 239 242 244 246 248 249 251
277 276 274 269 260 250 243 243 243 241 238 236 239 246 258 274 287 296 302 302 297 289 278 268 261 255 251 249 245 242 240 238 238 237 236 235 236 239 242 245 248 250 252
272 271 266 259 252 247 245 245 245 245 244 241 243 250 260 277 290 297 301 302 301 297 289 277 265 256 251 249 248 245 242 241 238 236 236 235 235 237 240 244 247 250 252
267 264 259 253 248 247 247 248 250 251 249 249 250 253 261 271 283 293 299 302 303 300 294 286 272 260 253 250 248 247 245 244 240 237 236 235 236 236 238 242 246 249 251
260 257 255 251 248 247 248 249 250 250 250 252 254 258 264 269 277 284 293 299 303 301 297 290 280 266 256 250 248 247 247 247 244 240 237 235 235 235 237 240 244 247 250
259 255 253 252 251 249 249 250 251 251 251 253 256 260 266 272 278 280 285 293 299 302 301 292 282 270 259 251 248 247 247 248 248 246 240 236 234 233 236 239 243 245 248
259 255 252 251 252 252 251 251 252 252 252 253 255 259 265 272 278 281 282 287 293 298 301 295 284 272 260 251 246 244 245 246 248 248 243 238 235 234 238 241 243 246 248
262 258 254 250 250 252 253 252 252 252 252 253 255 258 263 268 274 279 280 282 288 294 299 297 286 273 259 250 245 243 243 243 242 244 241 237 235 235 240 243 245 247 248
262 260 257 253 250 249 250 251 251 251 252 253 254 257 260 265 270 274 278 279 282 289 295 296 289 274 260 250 245 241 239 239 238 238 236 234 234 238 243 246 248 249 250
261 259 258 255 252 250 249 249 250 251 252 252 254 256 259 262 266 270 273 276 279 284 290 294 292 278 264 251 244 241 237 235 234 236 236 237 241 244 248 250 251 251 251
259 257 256 255 254 252 250 249 248 250 251 252 253 255 257 260 263 266 269 271 275 280 285 289 289 280 268 254 244 241 238 236 235 237 238 242 246 250 253 254 253 252 251
257 255 254 253 252 252 251 250 249 249 249 250 251 253 255 257 260 263 265 267 270 275 280 283 284 280 271 257 245 240 238 237 235 237 240 245 249 252 254 255 256 253 251
255 253 251 250 250 250 250 249 249 248 248 248 249 250 252 254 256 259 261 263 265 270 275 278 279 277 272 259 246 240 236 236 237 240 243 246 250 252 254 255 255 253 250
254 251 249 248 247 248 248 248 247 247 246 246 247 248 249 250 252 255 257 258 260 264 270 274 275 272 271 260 246 239 237 236 238 242 245 248 250 251 253 252 251 250 247
258 254 250 247 246 245 245 246 245 245 244 243 244 244 246 247 248 250 252 254 256 259 265 269 271 268 266 258 246 239 237 237 239 242 245 248 249 250 250 249 248 246 244
266 263 258 253 249 246 244 243 243 242 241 241 240 240 241 243 244 245 246 249 251 254 259 264 266 264 259 250 242 237 236 237 239 242 246 248 248 246 248 247 244 241 240
265 265 263 262 259 254 249 244 242 240 239 238 237 237 237 238 240 241 242 245 247 249 254 259 261 258 253 244 239 237 237 237 238 241 244 244 242 244 244 242 240 235 235
264 262 261 259 258 258 256 250 244 239 237 235 234 234 233 234 235 238 239 241 244 246 248 253 254 250 246 241 236 235 235 237 236 237 240 242 242 240 240 237 234 234 234
263 259 256 254 254 254 256 255 248 240 235 232 231 230 230 231 232 234 236 238 240 242 244 248 248 245 242 237 234 234 235 238 237 239 242 243 242 239 236 231 229 228 226
260 256 252 250 250 250 251 252 251 243 234 229 226 226 227 228 229 231 233 235 235 236 238 241 242 241 237 233 232 231 233 237 239 240 241 241 238 235 231 225 222 221 221
Height
5854 5853 5852 5852 5851 5850 5850 5849 5849 5848 5848 5847 5847 5846 5846 5846 5845 5845 5845 5846 5846 5847 5849 5850 5852 5854 5856 5858 5860 5862 5864 5866 5868 5870 5872 5874 5875 5877 5879 5880 5881 5882 5882
5848 5847 5846 5845 5845 5844 5844 5843 5843 5842 5842 5842 5842 5841 5840 5840 5839 5839 5840 5841 5841 5842 5842 5843 5845 5847 5849 5851 5853 5856 5858 5860 5862 5864 5867 5869 5871 5873 5875 5876 5877 5878 5879
5842 5841 5840 5839 5839 5838 5838 5837 5837 5837 5837 5837 5837 5836 5836 5836 5835 5835 5835 5835 5836 5836 5836 5837 5839 5840 5842 5844 5846 5848 5851 5853 5856 5858 5861 5863 5865 5868 5870 5871 5873 5874 5876
5835 5834 5833 5833 5832 5831 5831 5830 5831 5831 5832 5832 5832 5832 5832 5831 5831 5830 5830 5830 5830 5831 5831 5832 5833 5834 5836 5837 5839 5841 5843 5846 5849 5851 5854 5857 5860 5862 5864 5866 5868 5870 5871
5828 5827 5827 5826 5825 5825 5824 5824 5825 5825 5826 5827 5827 5827 5827 5827 5826 5825 5825 5825 5825 5825 5825 5826 5827 5827 5829 5830 5831 5833 5836 5838 5841 5844 5847 5850 5853 5855 5858 5860 5863 5864 5866
5821 5821 5820 5819 5818 5819 5819 5819 5819 5820 5821 5822 5823 5823 5823 5823 5822 5821 5820 5819 5819 5819 5819 5819 5820 5820 5821 5822 5824 5826 5828 5830 5833 5836 5839 5842 5846 5849 5851 5854 5856 5859 5861
5815 5814 5814 5813 5813 5813 5813 5814 5814 5815 5816 5818 5818 5819 5819 5819 5818 5817 5815 5814 5813 5813 5813 5813 5813 5814 5814 5815 5817 5818 5820 5822 5824 5827 5830 5834 5838 5841 5844 5847 5850 5852 5855
5809 5808 5808 5808 5808 5808 5808 5808 5809 5810 5811 5813 5814 5815 5815 5815 5814 5813 5811 5809 5808 5807 5806 5805 5806 5807 5808 5809 5810 5811 5812 5814 5816 5818 5822 5825 5829 5833 5836 5840 5843 5846 5848
5802 5802 5802 5802 5802 5803 5803 5803 5804 5805 5806 5807 5809 5810 5810 5810 5808 5808 5807 5805 5802 5800 5799 5798 5798 5799 5800 5801 5803 5804 5806 5807 5809 5811 5814 5817 5821 5824 5828 5832 5835 5838 5841
5795 5795 5795 5796 5796 5796 5797 5797 5798 5799 5800 5801 5802 5803 5804 5805 5804 5802 5801 5800 5798 5795 5793 5792 5791 5791 5792 5794 5796 5797 5799 5800 5802 5804 5806 5809 5813 5816 5820 5824 5828 5831 5833
5788 5788 5788 5788 5788 5789 5789 5790 5791 5791 5793 5794 5795 5796 5797 5798 5799 5798 5796 5794 5793 5790 5788 5785 5784 5784 5785 5786 5788 5790 5792 5793 5794 5796 5799 5802 5805 5809 5813 5817 5820 5823 5826
5780 5780 5780 5780 5780 5780 5781 5782 5782 5783 5785 5786 5788 5789 5790 5790 5792 5792 5791 5789 5786 5784 5782 5780 5778 5777 5777 5778 5780 5782 5784 5786 5787 5789 5792 5795 5797 5801 5805 5809 5812 5815 5818
5770 5770 5771 5771 5771 5771 5772 5772 5773 5775 5776 5778 5779 5781 5782 5783 5784 5784 5785 5784 5781 5778 5776 5774 5772 5771 5770 5771 5773 5775 5777 5779 5781 5783 5786 5788 5791 5795 5798 5802 5805 5808 5810
5757 5757 5759 5760 5761 5761 5762 5763 5764 5765 5766 5768 5770 5772 5773 5774 5775 5776 5777 5777 5776 5773 5770 5768 5766 5765 5764 5765 5767 5769 5771 5773 5776 5778 5780 5783 5786 5789 5793 5795 5798 5800 5803
5742 5742 5744 5746 5747 5749 5750 5751 5753 5754 5756 5758 5760 5762 5764 5765 5767 5768 5769 5770 5769 5767 5764 5762 5761 5759 5758 5759 5760 5762 5765 5767 5770 5773 5775 5777 5780 5784 5787 5789 5791 5793 5795
5724 5726 5727 5729 5731 5734 5736 5738 5740 5742 5745 5748 5750 5752 5754 5756 5758 5759 5761 5761 5762 5761 5759 5756 5754 5753 5752 5753 5754 5756 5759 5762 5765 5768 5770 5773 5775 5778 5780 5782 5784 5786 5788
5704 5706 5709 5711 5714 5717 5720 5723 5726 5729 5732 5736 5739 5742 5744 5747 5749 5750 5752 5753 5754 5754 5753 5751 5749 5747 5746 5747 5748 5750 5753 5756 5759 5762 5765 5767 5769 5771 5773 5775 5777 5779 5781
5681 5684 5687 5691 5694 5697 5701 5706 5710 5714 5718 5722 5726 5730 5734 5737 5740 5742 5743 5745 5746 5747 5747 5745 5743 5741 5740 5741 5742 5744 5747 5750 5753 5756 5759 5761 5763 5765 5767 5769 5770 5772 5774
5655 5659 5663 5668 5672 5676 5681 5686 5692 5697 5702 5707 5712 5717 5721 5725 5729 5732 5734 5736 5738 5739 5740 5739 5738 5736 5734 5734 5735 5738 5740 5744 5747 5750 5752 5755 5757 5759 5760 5762 5764 5766 5767
5628 5632 5637 5642 5648 5653 5659 5664 5671 5678 5685 5691 5697 5703 5708 5713 5718 5722 5725 5727 5730 5731 5732 5732 5732 5730 5729 5728 5729 5731 5734 5738 5741 5744 5746 5748 5750 5752 5754 5756 5757 5759 5761
5607 5609 5613 5617 5623 5629 5636 5642 5649 5658 5666 5674 5681 5688 5694 5700 5705 5710 5714 5718 5721 5723 5725 5725 5725 5724 5724 5724 5724 5726 5729 5732 5734 5737 5740 5742 5744 5746 5747 5749 5751 5753 5755
5594 5594 5595 5597 5601 5605 5611 5619 5627 5637 5646 5655 5664 5672 5679 5687 5693 5698 5703 5708 5712 5715 5717 5718 5719 5719 5718 5719 5720 5722 5724 5726 5729 5732 5733 5735 5738 5740 5742 5744 5745 5747 5749
5581 5582 5583 5584 5586 5588 5591 5597 5605 5615 5625 5636 5646 5656 5664 5673 5680 5686 5692 5697 5702 5706 5709 5711 5712 5713 5713 5714 5715 5717 5719 5721 5723 5725 5727 5729 5731 5733 5736 5738 5740 5742 5744
5567 5569 5570 5572 5574 5576 5578 5580 5585 5593 5604 5616 5628 5639 5649 5658 5667 5674 5681 5687 5692 5697 5700 5703 5705 5706 5707 5708 5709 5711 5713 5715 5717 5719 5722 5723 5725 5727 5730 5732 5735 5737 5739
5552 5554 5557 5560 5563 5565 5567 5569 5571 5577 5586 5597 5609 5622 5633 5644 5654 5662 5669 5676 5682 5687 5691 5695 5698 5700 5701 5702 5704 5706 5708 5710 5712 5714 5716 5718 5720 5722 5724 5727 5729 5732 5734
5536 5539 5543 5547 5551 5554 5557 5560 5562 5565 5572 5581 5593 5606 5618 5630 5640 5649 5658 5665 5672 5678 5683 5687 5690 5693 5695 5697 5698 5701 5703 5704 5706 5708 5710 5713 5715 5717 5719 5722 5725 5728 5730